Location: Esch
(46.2667°N, 7.8667°E)
Time: 17:04:56
(UTC+00:00)

Daily predictions for brighter satellites

Satellite Brightness Start Highest point End
(mag) Time Altitude Azimuth Time Altitude Azimuth Time Altitude Azimuth
Cosmos 304 Rocket 4.0 19:19:14 10° NNW 19:24:01 73° WSW 19:28:46 10° SSE
Cosmos 158 Rocket 4.3 19:19:36 10° SSW 19:24:49 78° WNW 19:30:11 10° NNE
SPOT 3 Rocket 4.4 19:20:26 10° SE 19:25:07 35° ENE 19:29:48 10° N
Meteor 2-19 Rocket 4.5 19:19:34 10° S 19:25:31 63° E 19:31:30 10° NNE
Cosmos 2151 3.0 19:23:28 10° S 19:27:43 75° E 19:32:01 10° NNE
Cosmos 2084 3.3 19:25:58 10° SSW 19:30:00 78° SE 19:34:10 10° NE
Resurs 01 Rocket 2.1 19:28:42 10° SE 19:32:56 45° ENE 19:37:11 10° N
Gbstr 26 Del rocket 3.9 19:31:44 10° WNW 19:35:04 31° SW 19:38:32 10° SSE
Cosmos 1980 Rocket 4.4 19:33:37 10° NW 19:37:58 23° WSW 19:42:20 10° SSW
Cosmos 1812 3.9 19:37:37 10° NNE 19:40:57 27° ENE 19:44:02 11° SE
Cosmos 1933 3.3 19:37:14 10° N 19:41:18 88° W 19:45:18 10° S
Cosmos 1689 Rocket 3.5 19:39:05 10° N 19:41:41 38° WNW 19:44:15 10° SW
Cosmos 1782 3.0 19:39:16 10° N 19:43:14 56° ENE 19:47:09 10° SSE
Landsat 7 4.1 19:38:44 10° SSE 19:43:21 53° ENE 19:47:59 10° N
MOS 1 4.4 19:41:25 10° SSE 19:47:04 82° WSW 19:52:45 10° NNW
SL-27 R/B 3.0 19:44:46 10° S 19:48:08 39° ESE 19:51:31 10° NE
Cosmos 2333 Rocket 3.1 19:46:43 10° NNW 19:51:54 35° NE 19:56:33 12° ESE
BREEZE-M DEB (TANK) 2.6 19:49:51 10° WNW 19:52:39 56° SSW 19:58:28 13° SE
Cosmos 2237 Rocket 4.4 19:50:44 10° N 19:53:24 13° NE 19:56:05 10° ENE
Cosmos 2322 Rocket 2.3 19:48:28 10° NNW 19:54:07 77° WSW 19:59:42 10° SSE
SPOT 5 4.3 19:52:44 11° ESE 19:55:41 20° ENE 19:58:57 10° NNE
Cosmos 2195 Rocket 4.4 19:49:39 10° S 19:55:45 85° E 20:01:54 10° N
IRS-1A Rocket 4.5 19:50:45 10° S 19:56:14 71° WSW 20:01:46 10° NNW
ARIANE 5 R/B 4.0 19:54:19 12° ESE 19:57:21 24° ENE 20:00:54 10° NNE
OBJECT-B 3.5 19:57:32 10° SW 19:59:53 19° W 20:02:16 10° NW
BREEZE-M R/B 4.0 19:55:24 10° SSW 19:59:56 23° SSE 20:02:47 10° E
BREEZE-M DEB (TANK) 4.0 20:01:53 10° WNW 20:05:12 55° SSW 20:12:58 15° SE
Cosmos 2219 Rocket 3.1 20:00:56 10° NNW 20:06:06 36° NE 20:10:11 15° ESE
Cosmos 2056 Rocket 3.5 20:05:35 10° NNW 20:10:57 90° ENE 20:15:29 14° SSE
ATLAS 5 CENTAUR R/B 3.1 20:07:06 10° NNW 20:12:09 39° NE 20:17:08 14° ESE
Spot 2 Rocket 3.9 20:14:03 17° SE 20:17:42 49° ENE 20:22:37 10° N
SPOT 1/Viking Rocket 3.6 20:14:27 14° SSE 20:18:55 76° ENE 20:24:10 10° N
USA 245 3.5 20:16:53 19° SSE 20:19:47 56° ENE 20:23:14 10° N
Cosmos 1408 Rocket 3.8 20:17:00 16° SSE 20:20:16 46° E 20:24:25 10° NNE
NOSS 2-1 (E) 3.6 20:19:03 10° SW 20:22:16 55° NW 20:25:40 10° NNE
Cosmos 1655 Rocket 4.5 20:19:07 15° SSE 20:24:04 44° E 20:30:05 10° NNE
Cosmos 2026 Rocket 4.3 20:18:46 10° SSW 20:25:03 70° W 20:31:16 10° N
CZ-2C R/B 3.6 20:22:01 10° NNE 20:26:28 61° ESE 20:30:27 12° S
SL-16 R/B 3.6 20:22:23 10° NW 20:27:24 33° WSW 20:32:24 10° SSW
Cosmos 1743 Rocket 4.5 20:25:40 23° SE 20:27:26 31° E 20:31:19 10° NNE
IGS 5A 4.3 20:23:31 10° S 20:27:31 47° W 20:31:33 10° NNW
GP-B 3.1 20:25:00 10° N 20:29:27 83° W 20:33:40 11° S
CARTOSAT-1 3.7 20:29:08 23° SSE 20:31:39 61° ENE 20:35:56 10° N
Cosmos 1151 Rocket 3.7 20:27:45 10° NNW 20:32:03 55° W 20:36:06 11° S
NOSS 3-1 (C) 4.1 20:27:06 10° NW 20:34:37 90° SSW 20:40:55 21° SE
Lacrosse 5 2.8 20:33:37 23° SE 20:34:43 25° SE 20:38:51 10° ENE
Okean 3 Rocket 4.1 20:32:21 10° SSW 20:36:49 62° WNW 20:41:20 10° N
Cosmos 2333 4.1 20:32:43 10° NNW 20:38:22 84° ENE 20:41:51 24° SSE
MetOp-B 4.5 20:36:36 14° S 20:41:12 64° WSW 20:46:33 10° NNW
ERS-2 3.9 20:38:02 10° N 20:41:20 33° WNW 20:44:37 10° SW
Meteor 1-10 Rocket 4.1 20:37:34 10° N 20:43:08 82° E 20:46:47 23° SSE
COSMOS 2487 2.3 20:45:40 39° SSE 20:46:38 57° ESE 20:49:59 10° NNE
Cosmos 1515 Rocket 3.5 20:44:58 10° N 20:49:24 86° W 20:51:44 27° S
COSMOS 2428 2.9 20:45:17 10° NNW 20:50:57 62° ENE 20:53:52 29° SE
USA 229 DEB 4.0 20:45:28 10° NW 20:52:49 78° NE 20:57:36 26° SE
COSMOS 2455 2.8 20:46:53 10° SSW 20:52:53 81° ESE 20:58:56 10° NE
USA 229 4.0 20:45:34 10° NW 20:52:55 77° NE 20:57:42 26° SE
Terra 2.1 20:54:31 32° SE 20:56:26 53° ENE 21:01:04 10° N
Cosmos 292 Rocket 4.3 20:52:36 10° NNW 20:57:16 54° WSW 20:59:58 24° S
Cosmos 2360 Rocket 3.2 20:55:33 10° NW 21:00:45 39° WSW 21:04:36 17° SSW
Cosmos 2084 Rocket 4.1 20:56:46 10° NNW 21:00:48 44° NE 21:02:26 30° E
Cosmos 1048 Rocket 4.0 20:59:49 27° S 21:02:25 58° ESE 21:07:26 10° NNE
Cosmos 972 Rocket 3.8 21:01:58 22° S 21:05:19 72° ESE 21:10:14 10° NNE
Resurs 01 Rocket 3.9 21:06:20 10° SW 21:09:38 20° W 21:12:58 10° NW
NOSS 3-1 (A) 4.1 21:05:54 10° NW 21:13:26 86° SW 21:18:16 30° SSE
Cosmos 2266 Rocket 3.9 21:09:42 21° S 21:14:02 89° E 21:20:22 10° N
Cosmos 1707 Rocket 4.4 21:12:05 10° N 21:16:05 33° ENE 21:16:40 32° E
H-2A R/B 4.0 21:13:06 10° NNE 21:17:03 39° E 21:17:03 39° E
Cosmos 1980 4.4 21:11:55 10° NNW 21:17:18 42° NE 21:19:35 29° ESE
Gblst 52 Del rocket 4.5 21:16:02 10° WNW 21:22:02 71° SSW 21:24:54 36° SE
ERS-1 Rocket 3.2 21:20:14 33° S 21:22:26 65° WSW 21:27:27 10° NNW
Cosmos 2228 Rocket 3.0 21:21:21 10° N 21:25:49 89° W 21:26:53 52° S
Cosmos 2285 Rocket 4.0 21:24:04 10° NNW 21:30:21 74° WSW 21:33:03 36° S
Cosmos 2297 Rocket 2.9 21:31:26 33° ESE 21:31:26 33° ESE 21:36:25 10° NE
Cosmos 1805 Rocket 3.4 21:31:35 55° S 21:32:32 85° E 21:36:58 10° N
SPOT 5 3.3 21:31:58 34° SSW 21:33:25 47° W 21:37:48 10° NNW
ARIANE 5 R/B 3.7 21:31:52 27° SW 21:33:37 38° W 21:37:46 10° NNW
Cosmos 972 4.5 21:32:40 44° S 21:34:14 67° ESE 21:39:16 10° NNE
BREEZE-M DEB (TANK) 1.9 21:29:42 10° WNW 21:34:36 80° W 21:34:36 80° W
Cosmos 2315 Rocket 4.0 21:28:27 10° N 21:34:50 85° W 21:37:37 37° S
NOSS 0 Rocket 3.9 21:29:23 10° NNW 21:35:40 80° ENE 21:37:53 42° SE
Cosmos 2333 Rocket 3.0 21:30:58 10° NW 21:36:15 42° WSW 21:38:33 28° SSW
Cosmos 2237 Rocket 2.5 21:33:13 10° NNW 21:38:49 56° ENE 21:40:34 40° ESE
Meteor 1-20 Rocket 4.1 21:40:21 44° S 21:42:16 79° E 21:48:01 10° NNE
Cosmos 1452 Rocket 4.3 21:37:43 10° NNW 21:42:41 44° WSW 21:44:29 32° SSW
Cosmos 2227 Rocket 3.1 21:44:50 31° E 21:44:50 31° E 21:49:21 10° NE
ALOS 2 4.4 21:45:45 20° ENE 21:46:18 20° ENE 21:49:30 10° NNE
Cosmos 2219 Rocket 3.1 21:44:54 10° NW 21:50:04 39° WSW 21:51:54 31° SSW
USA 40 PKM 4.3 21:46:55 10° NW 21:50:32 70° NE 21:50:40 69° ENE
Sich 1 3.0 21:53:27 63° SW 21:54:00 74° W 21:58:20 10° N
ATLAS 5 CENTAUR R/B 2.8 21:51:30 10° NW 21:57:01 52° WSW 21:58:38 41° SSW
Cosmos 1515 3.9 21:53:58 10° NNW 21:57:27 68° WNW 21:57:27 68° WNW
BREEZE-M DEB (TANK) 4.5 21:42:13 10° WSW 21:58:28 65° SSE 22:02:13 19° E
Cosmos 1331 Rocket 4.1 21:53:28 10° NNW 21:58:39 67° WSW 21:59:36 55° SSW
Cosmos 1110 Rocket 4.3 21:54:51 10° NNW 22:00:05 59° WSW 22:01:08 49° SSW
Nadezhda 1 Rocket 4.4 21:58:55 10° N 22:05:08 50° ENE 22:06:40 42° ESE
Cosmos 1633 Rocket 3.0 22:10:51 75° NE 22:10:51 75° NE 22:14:56 10° NNE
SL-16 R/B 3.2 22:05:57 10° NNW 22:11:14 38° NE 22:12:56 31° E
NOSS 2-2 (C) 4.4 22:07:12 10° NW 22:12:32 88° NE 22:14:24 51° SE
Cosmos 1470 Rocket 4.2 22:14:08 43° ENE 22:14:08 43° ENE 22:17:35 10° NNE
Cosmos 1666 4.0 22:15:50 32° NE 22:15:50 32° NE 22:18:17 10° NNE
Lacrosse 5 2.0 22:12:21 11° WSW 22:17:19 70° NW 22:22:24 10° NE
Cosmos 1666 Rocket 3.7 22:21:09 66° W 22:21:17 67° W 22:25:45 10° N
SL-08 ROCKET BODY 4.4 22:21:32 54° SSW 22:23:03 86° W 22:29:17 10° N
Cosmos 1340 Rocket 4.1 22:28:39 32° NE 22:28:39 32° NE 22:31:07 10° NNE
Terra 3.7 22:33:24 18° WSW 22:34:30 19° W 22:37:54 10° NW
COSMOS 2428 4.3 22:30:28 10° NW 22:34:43 22° W 22:35:52 21° WSW
CZ-4C R/B 3.4 22:29:44 10° NW 22:36:39 54° NE 22:41:11 27° ESE
COBE Rocket 4.0 22:36:49 60° W 22:36:49 60° W 22:41:32 10° NNW
Timation 2 Rocket 3.8 22:39:27 62° SE 22:39:47 63° ESE 22:45:53 10° NNE
Meteor 2-4 Rocket 3.7 22:34:04 10° NNW 22:40:00 81° W 22:40:46 68° SSW
CZ-3B R/B 2.8 22:34:00 10° WNW 22:39:48 46° W 22:39:48 46° W
Cosmos 1992 Rocket 4.0 22:37:44 10° NNW 22:42:58 67° ENE 22:43:15 66° E
Cosmos 2242 Rocket 4.1 22:40:43 10° N 22:44:34 51° NE 22:44:34 51° NE
Cosmos 1862 Rocket 4.2 22:41:33 10° NNW 22:45:19 48° WNW 22:45:19 48° WNW
USA 267 3.2 22:41:28 10° ENE 22:47:54 56° SE 22:48:10 56° SE
Cosmos 2219 3.2 22:48:17 61° SW 22:49:18 79° WNW 22:55:06 10° NNE
Meteor 1-5 Rocket 4.2 22:49:37 69° SSW 22:50:22 86° W 22:56:21 10° N
Spot 4 4.1 22:52:09 58° W 22:52:09 58° W 22:56:49 10° NNW
Cosmos 1066 Rocket 4.5 22:48:57 10° N 22:54:45 57° ENE 22:55:26 54° ESE
Cosmos 2082 3.7 23:01:12 64° ESE 23:01:12 64° ESE 23:06:48 10° NNE
Cosmos 1703 Rocket 3.9 22:57:38 10° N 23:01:20 62° N 23:01:20 62° N
Cosmos 909 Rocket 4.2 23:02:47 51° SW 23:04:45 88° NW 23:12:41 10° NE
Meteor 1-11 Rocket 3.7 23:05:20 64° E 23:05:22 64° E 23:10:51 10° NNE
Okean 1-7 3.6 23:06:09 10° N 23:09:33 56° NNW 23:09:33 56° NNW
Cosmos 2181 Rocket 4.2 23:05:35 10° N 23:11:48 59° ENE 23:12:46 53° ESE
Cosmos 2297 Rocket 3.1 23:13:12 31° WSW 23:15:19 43° NW 23:20:45 10° NNE
Meteor 2-17 Rocket 4.5 23:15:38 59° SW 23:16:33 68° W 23:22:36 10° N
Nimbus 7 Rocket 4.2 23:12:21 10° NNE 23:18:22 78° ESE 23:18:52 72° SSE
Meteor 1-23 Rocket 4.4 23:15:17 10° N 23:21:00 62° ENE 23:21:35 59° ESE
USA 234 3.4 23:18:04 26° ESE 23:22:01 69° NNE 23:28:31 10° NW
ALOS 2 3.5 23:23:09 41° WNW 23:23:09 41° WNW 23:26:34 10° NNW
Cosmos 2237 Rocket 3.6 23:17:56 10° NW 23:22:23 25° W 23:22:23 25° W
Cosmos 614 Rocket 4.1 23:23:41 66° ENE 23:23:41 66° ENE 23:28:31 10° NNE
Cosmos 1461 3.6 23:27:18 55° NNE 23:27:18 55° NNE 23:30:46 10° NE
Cosmos 1709 Rocket 4.0 23:26:19 64° SW 23:27:18 78° W 23:33:44 10° N
Cosmos 2227 Rocket 3.0 23:26:36 35° W 23:28:18 45° NW 23:33:45 10° NNE
Meteor 1-13 Rocket 4.2 23:22:58 10° NNW 23:28:39 68° W 23:28:50 67° WSW
SL-24 R/B - RUBIN 2 4.4 23:27:17 10° NNW 23:32:14 48° NE 23:32:45 46° ENE
Cosmos 2263 Rocket 2.8 23:33:28 43° E 23:33:28 43° E 23:38:30 10° NE
Cosmos 2344 4.0 23:34:40 39° SE 23:35:18 40° ESE 23:42:15 10° NE
Cosmos 1536 3.9 23:40:44 44° NNW 23:40:44 44° NNW 23:43:43 10° N
Cosmos 1603 4.4 23:34:33 10° NNW 23:40:00 47° ENE 23:41:32 38° E
PSLV R/B 4.0 23:38:22 10° NNE 23:42:34 63° NE 23:42:34 63° NE
Cosmos 1869 Rocket 4.1 23:47:06 55° NW 23:47:06 55° NW 23:50:53 10° N
Okean 3 4.4 23:42:38 10° NNW 23:45:46 43° NW 23:45:46 43° NW
ASTEX 1 4.1 23:46:47 44° E 23:46:58 45° ENE 23:51:40 10° N
Cosmos 44 3.8 23:47:08 10° NW 23:51:25 54° WNW 23:51:25 54° WNW
Thor Agena Rocket 3.4 23:47:36 10° NNE 23:52:34 85° NNW 23:52:34 85° NNW
